This is the latest recevied weather packets stored in our database for station/object DB0WV-6. If no packets are shown the sender has not sent any weather packets the latest 10 day(s).
| Time | Temp. | Humidity | Pressure | Rain* | Wind** | Luminosity | Snow |
|---|---|---|---|---|---|---|---|
| 1777695016 | 9.44° C | 61% | 1020.4 hPa | 0 mm | - | - | - |
| 1777689015 | 9.44° C | 60% | 1020.5 hPa | 0 mm | - | - | - |
| 1777687218 | 10° C | 59% | 1020.6 hPa | 0 mm | - | - | - |
| 1777686016 | 9.44° C | 60% | 1020.6 hPa | 0 mm | - | - | - |
| 1777681815 | 10° C | 60% | 1020.9 hPa | 0 mm | - | - | - |
| 1777680613 | 10° C | 59% | 1021 hPa | 0 mm | - | - | - |
| 1777678216 | 10.56° C | 58% | 1021.1 hPa | 0 mm | - | - | - |
| 1777677615 | 10.56° C | 57% | 1021.2 hPa | 0 mm | - | - | - |
| 1777677014 | 10.56° C | 57% | 1021.2 hPa | 0 mm | - | - | - |
| 1777676414 | 11.11° C | 56% | 1021.2 hPa | 0 mm | - | - | - |
| 1777675214 | 11.11° C | 55% | 1021.3 hPa | 0 mm | - | - | - |
| 1777673414 | 11.67° C | 53% | 1021.4 hPa | 0 mm | - | - | - |
| 1777669814 | 12.22° C | 50% | 1021.5 hPa | 0 mm | - | - | - |
| 1777665014 | 13.89° C | 45% | 1021.5 hPa | 0 mm | - | - | - |
| 1777661414 | 15° C | 41% | 1021.2 hPa | 0 mm | - | - | - |
| 1777656014 | 17.78° C | 32% | 1020.9 hPa | 0 mm | - | - | - |
| 1777654834 | 18.33° C | 31% | 1021 hPa | 0 mm | - | - | - |
| 1777648234 | 21.11° C | 24% | 1021.9 hPa | 0 mm | - | - | - |
| 1777646414 | 20° C | 26% | 1022 hPa | 0 mm | - | - | - |
| 1777644014 | 20.56° C | 25% | 1022.4 hPa | 0 mm | - | - | - |
| 1777643437 | 20° C | 28% | 1022.4 hPa | 0 mm | - | - | - |
| 1777639814 | 18.33° C | 30% | 1022.9 hPa | 0 mm | - | - | - |
| 1777638014 | 17.78° C | 31% | 1022.9 hPa | 0 mm | - | - | - |
| 1777636235 | 16.67° C | 36% | 1022.9 hPa | 0 mm | - | - | - |
| 1777633836 | 16.67° C | 38% | 1023.4 hPa | 0 mm | - | - | - |
* Rain latest hour (hover to see other rain measurements)
** Current wind speed in m/s (hover to see current wind gust speed)